User: anonymous   Login
Location: Unspecified
(0.0000°N, 0.0000°E)
Time: 23:17:42
(UTC+00:00)
Language:

OBJECT N - Orbit

View from above orbital plane
View from above orbital plane
View from above satellite
View from above satellite

Ground track
Ground track

The orbit is defined by the following mean orbital elements,

1 57178U          26145.55826421 +.00000000 +00000-0 +43022-3 0 00006
2 57178  97.5104 210.8694 0011559 165.3744 194.7833 15.30545950    09
Epoch (UTC): 25 May 2026 13:23:54
Eccentricity: 0.0011559
inclination: 97.5104°
perigee height: 466 km
apogee height: 482 km
right ascension of ascending node: 210.8694°
argument of perigee: 165.3744°
revolutions per day: 15.30545950
mean anomaly at epoch: 194.7833°

The dashed part of the orbit path shows where the satellite is in the earth's shadow,  

DLR